Regional Weather Roundup
Issued by NWS

Home | Current Version | Previous Version | Graphics & Text | Print | Product List | Glossary Off
Versions: 1 2 3 4 5 6 7 8 9 10 11 12 13 14 15 16 17 18 19 20 21 22 23 24 25 26 27 28 29 30 31 32 33 34 35 36 37 38 39 40 41 42 43 44 45 46 47 48 49 50

000
ASUS43 KMKX 170711
RWRWI

WISCONSIN REGIONAL WEATHER ROUNDUP
NATIONAL WEATHER SERVICE MILWAUKEE/SULLIVAN WI
200 AM CDT THU APR 17 2014

NOTE: "FAIR" INDICATES FEW OR NO CLOUDS BELOW 12,000 FEET WITH NO
SIGNIFICANT WEATHER AND/OR OBSTRUCTIONS TO VISIBILITY.

WIZ001-002-006>008-014>016-023>028-170800-
NORTHWEST WISCONSIN

CITY           SKY/WX    TMP DP  RH WIND       PRES   REMARKS
SUPERIOR ARPT  LGT SNOW  30  29  97 NE13G20   30.14S WCI  20
ASHLAND        LGT SNOW  28  27  96 NE18      30.11F VSB 1   WCI  15
HAYWARD        LGT SNOW  29  27  92 N6        30.03S VSB 1   WCI  23
SIREN          LGT SNOW  28  27  94 NE10G18   30.04S WCI  19
RICE LAKE      MIX PCPN  34  32  93 NE6       29.99F WCI  29
LADYSMITH      LGT SNOW  34  32  94 E7        30.01F WCI  28
EAU CLAIRE     LGT RAIN  39  36  89 E13       29.93F WCI  31
MENOMONIE      LGT RAIN  37  37  99 NE10      29.93F WCI  30
NEW RICHMOND   LGT SNOW  32  32 100 N10       29.97S WCI  24
OSCEOLA        FLURRIES  30  30  99 N8        30.02S WCI  22
$$

WIZ003>005-009-010-017-018-170800-
NORTH CENTRAL WISCONSIN

CITY           SKY/WX    TMP DP  RH WIND       PRES   REMARKS
WOODRUFF       LGT SNOW  32  29  90 SE13G18   30.06S VSB 3/4 WCI  22
RHINELANDER    LGT SNOW  30  28  92 E13       30.07F FOG     WCI  20
EAGLE RIVER    LGT SNOW  30  29  96 SE14      30.08F WCI  19
LAND O LAKES   LGT SNOW  30  28  93 SE9G17    30.10F WCI  22
PHILLIPS       SNOW      32  31  97 E9        30.01F VSB 1/2 WCI  24
TOMAHAWK       LGT SNOW  31  30  94 E9        30.05S WCI  23
MEDFORD        LGT SNOW  32  32  97 SE10G17   29.99F WCI  24
MERRILL        LGT SNOW  32  31  96 CALM      30.05S VSB 3/4
$$

WIZ029-030-035-036-043>047-170800-
CENTRAL WISCONSIN

CITY           SKY/WX    TMP DP  RH WIND       PRES   REMARKS
WAUSAU         LGT SNOW  33  30  88 E16       30.03F FOG     WCI  23
MOSINEE        LGT RAIN  34  32  93 E14G24    30.04F WCI  24
MARSHFIELD     CLOUDY    39  30  70 SE16G29   29.97F WCI  30
STEVENS POINT  CLOUDY    36  29  76 E12G17    30.03F WCI  28
WAUPACA        LGT RAIN  43  28  56 SE14G20   30.08F
WAUTOMA        CLOUDY    42  28  58 SE8       30.04F
WISC RAPIDS    CLOUDY    41  28  60 SE12G20   30.00F
CAMP DOUGLAS   CLOUDY    45  30  55 SE15G23   29.95F
$$

WIZ011>013-019>022-031-037>040-048>050-170800-
NORTHEAST WISCONSIN

CITY           SKY/WX    TMP DP  RH WIND       PRES   REMARKS
ANTIGO         CLOUDY    31  28  87 SE23G30   30.08F FOG     WCI  18
STURGEON BAY   CLOUDY    37  25  60 SE15      30.20F WCI  28
GREEN BAY      CLOUDY    39  28  64 SE20G26   30.15F WCI  29
MANITOWOC      CLOUDY    38  30  73 SE17G23   30.18F WCI  28
APPLETON       CLOUDY    37  28  70 SE16      30.11F WCI  28
CLINTONVILLE   LGT RAIN  37  28  70 SE12G23   30.12S WCI  30
OSHKOSH        CLOUDY    40  27  59 SE12G21   30.09F WCI  33
$$

WIZ032>034-041-042-053>061-170800-
SOUTHWEST WISCONSIN

CITY           SKY/WX    TMP DP  RH WIND       PRES   REMARKS
LA CROSSE      LGT RAIN  49  30  48 SE17G28   29.88F
SPARTA         CLOUDY    47  28  46 SE15      29.93S
VIROQUA        CLOUDY    45  30  56 SE13G23   29.91S
BOSCOBEL       CLOUDY    49  28  44 S8G20     29.94F
PRAIRIE DU CHI CLOUDY    49  26  41 SE13G20   29.92S
PLATTEVILLE    CLOUDY    45  30  56 SE18G25   29.97F
$$

WIZ056-057-062-063-064-067-068-170800-
SOUTH CENTRAL WISCONSIN

CITY           SKY/WX    TMP DP  RH WIND       PRES   REMARKS
BARABOO/DELLS  CLOUDY    43  28  55 SE14G20   29.98F
LONE ROCK      CLOUDY    47  29  49 SE18G25   29.97F
WATERTOWN      CLOUDY    41  28  58 SE10      30.08F
MADISON        CLOUDY    44  28  53 SE20      30.03F
MIDDLETON      PTSUNNY   46  27  48 SE17G23   30.01F
MONROE         CLOUDY    43  29  58 SE16G23   30.02F
JANESVILLE     CLOUDY    43  27  52 SE14G24   30.06F
$$

WIZ051-052-058>065-066-070>072-170800-
SOUTHEAST WISCONSIN

CITY           SKY/WX    TMP DP  RH WIND       PRES   REMARKS
MILWAUKEE      MOCLDY    41  29  62 SE16G23   30.14F
WAUKESHA       CLOUDY    37  28  70 SE10      30.12F WCI  30
MILWAUKEE/TIMM MOCLDY    41  27  56 SE12      30.14F
RACINE         MOCLDY    40  29  64 SE17      30.16F WCI  31
BURLINGTON     MOCLDY    39  27  60 SW7       30.11F WCI  34
KENOSHA        MOCLDY    41  29  62 SE14      30.14F
FOND DU LAC    CLOUDY    40  28  62 SE15      30.09F WCI  32
SHEBOYGAN      CLOUDY    39  28  64 SE13G29   30.16F WCI  31
WEST BEND      MOCLDY    37  28  70 SE12G18   30.12F WCI  30
JUNEAU         CLOUDY    40  25  55 SE13      30.09S WCI  33
$$

LSZ147-162-170800-
LAKE SUPERIOR

STATION/POSITION TIME  TEMP    WIND        PRES    WAVE
                       AIR SEA DIR/SP/G            HT/PER
                 (UTC) (F)     (DEG/KT/KT) (MB)    (FT/S)
DEVILS ISLAND    0700   30      60/ 33/ 41 1021.9F
PORT WING        0609   29      50/ 25/ 25 1020.3F
SAXON HARBOR     0600           50/ 12/ 14 1019.6F
$$

LMZ867-665-643>646-170800-
LAKE MICHIGAN

STATION/POSITION TIME  TEMP    WIND        PRES    WAVE
                       AIR SEA DIR/SP/G            HT/PER
                 (UTC) (F)     (DEG/KT/KT) (MB)    (FT/S)
NORTHPORT PIER   0600   35     100/ 13/ 17 1024.0R
SISTER BAY       0623   36     120/  7/ 10   N/A
SHEBOYGAN LAKESH 0700   39     130/ 23/ 27 1022.0R
PORT WASHINGTON  0600   39     140/ 16/ 19 1021.7
MILWAUKEE LAKESH 0600   39     150/ 15/ 19   N/A
KENOSHA   LAKESH 0700   39     160/ 18/ 22   N/A
$$

TC  - TEMPERATURE IN CELSIUS
VSB - VISIBILITY IN STATUTE MILES
WCI - WIND CHILL INDEX
HX  - HEAT INDEX




USA.gov is the U.S. government's official web portal to all federal, state and local government web resources and services.